STARLINK-5316 (55305 NORAD) Tracking and Keplerian Element Data

This shows tracking and keplerian element data for the satellite.

Feedback or suggestion? Click here.




ElementValue
Catalog55305
NameSTARLINK-5316
Epoch Orbit1739
Epoch Day127.11661585
Epoch Year2023
RAAN126.4544
Inclination69.9983
Eccentricity0.0005206
Argument of Perigee287.3002
Mean Anonmoly72.7624
Mean Motion15.69870539
Decay Rate-6.117E-05
L11 55305U 23010AN 23127.11661585 -.00006117 00000+0 -49219-4 0 9997
L22 55305 69.9983 126.4544 0005206 287.3002 72.7624 15.69870539 17396



Live tracking and technical data element details for STARLINK-5316 (NORAD 55305). STARLINK-5316 can be tracked NOW for your location showing map with azimuth and elevation plus other details from your city location.







IsCatalogInMostPopularTable: catalog: 55305, numindb: 1
Update: records affected: 1



GetName: 55305 STARLINK-5316

Hit Count: updated at: Mon, 05 Jun 2023 19:54:58 GMT